Skip Page Navigation
NASA JPL Caltech
NASA Logo - Jet Propulsion Laboratory + View the NASA Portal
+ Center for Near-Earth Object Studies
JPL Home Earth Solar System Stars & Galaxies Technology
JPL Solar System Dynamics
BODIES ORBITS EPHEMERIDES TOOLS PHYSICAL DATA DISCOVERY FAQ SITE MAP
JPL Small-Body Database Browser
Search: [ help ]  
78152 (2002 NV24)
Classification: Main-belt Asteroid          SPK-ID: 2078152
Ephemeris | Orbit Diagram | Orbital Elements | Mission Design | Physical Parameters | Discovery Circumstances | Close-Approach Data ]

[ show orbit diagram ]
Orbital Elements at Epoch 2459000.5 (2020-May-31.0) TDB
Reference: JPL 29 (heliocentric ecliptic J2000)
 Element Value Uncertainty (1-sigma)   Units 
e .3407977291383732 3.5274e-08  
a 3.086606419234061 1.5055e-08 au
q 2.034697960815167 1.1212e-07 au
i 15.61593023423739 3.6398e-06 deg
node 151.6260963775467 1.5835e-05 deg
peri 277.6003800565879 1.703e-05 deg
M 29.27555903809417 4.4401e-06 deg
tp 2458839.426904257910
(2019-Dec-21.92690426)
2.4503e-05 TDB
period 1980.707333093082
5.42
1.4491e-05
3.967e-08
d
yr
n .1817532524796696 1.3297e-09 deg/d
Q 4.138514877652954 2.0185e-08 au
  Orbit Determination Parameters
   # obs. used (total)      1416  
   data-arc span      7922 days (21.69 yr)  
   first obs. used      1999-02-22  
   last obs. used      2020-10-31  
   planetary ephem.      DE431  
   SB-pert. ephem.      SB431-N16  
   condition code      0  
   norm. resid. RMS      .43812  
   source      ORB  
   producer      Otto Matic  
   solution date      2020-Nov-12 21:28:00  

Additional Information
 Earth MOID = 1.11611 au 
 Jupiter MOID = 1.64282 au 
 T_jup = 3.081 
[ show covariance matrix ]

Ephemeris | Orbit Diagram | Orbital Elements | Mission Design | Physical Parameters | Discovery Circumstances | Close-Approach Data ]

Physical Parameter Table
Parameter Symbol Value Units Sigma Reference Notes
absolute magnitude H 13.6   n/a MPO502627  
diameter diameter 4.799 km 0.790 urn:nasa:pds:neowise_diameters_albedos::2.0[mainbelt] (http://adsabs.harvard.edu/abs/2011ApJ...741...68M)  
geometric albedo albedo 0.169   0.089 urn:nasa:pds:neowise_diameters_albedos::2.0[mainbelt] (http://adsabs.harvard.edu/abs/2015ApJ...814..117N)  

78152 (2002 NV24)          Discovered 2002-Jul-09 by LINEAR at Socorro
Reference: 20040415/Numbers.arcLast Updated: 2004-04-19

[ show close-approach data ]
Ephemeris | Orbit Diagram | Orbital Elements | Mission Design | Physical Parameters | Discovery Circumstances | Close-Approach Data ]
ABOUT SSD CREDITS/AWARDS PRIVACY/COPYRIGHT GLOSSARY LINKS
FirstGov 2020-Nov-28 20:56 UT
(server date/time)  
NASA Home Page
Site Manager:   Ryan S. Park
Webmaster  Alan B. Chamberlin